Showing default

KUIPER-00120, 65762

Orbit data source: Space-Track

KUIPER-00120, 65762 is a payload satellite owned by Kuiper Systems (US) in LEO that was launched on Thu, 25 Sep 2025 UTC via an ATLAS V 551 launch vehicle from the Air Force Eastern Test Range (AFETR). Payload-class satellites include a variety of spacecraft equipped with specific instruments for various scientific and technological missions. These include communications satellites like Starlink; space stations such as the ISS; scientific satellites like the Hubble; Earth observation satellites from companies like Planet Labs, Umbra, and HawkEye 360; GPS; miniature CubeSats for education and research; and military/defense satellites.

Loading next visibility...
Identifier
65762, 2025-217A
Orbit
LEO
Country
Flag of USUS
Related business
Manufacturer
Kuiper Systems
Mission
Operational Commercial Communications
Bus & Motor
KUIPER, Unknown motor
Mass
~490 kg wet, ~490 kg dry
Launch date (UTC)
2025-09-25 (9 months ago)
Launch vehicle
ATLAS V 551
Launch site
Air Force Eastern Test Range (AFETR)
Object type
Payload
Rocket body
Debris
Shape & HBR
Box + 2 Pan, 3.4 m
Radar Cross Section
2.326 m², Large (>1 m²)

Expand to show TLE details & history
Last TLE update: 18 hours ago

TLE from 18 hours ago
0 KUIPER-00120
1 65762U 25217A   26171.11524605  .00001621  00000-0  24161-3 0  9991
2 65762  51.9001 320.1323 0000546  82.4191 277.6833 14.79931875 39909
Epoch: 2026-06-20T02:45Z
TLE epoch observation values (Epoch: 2026-06-20T02:45:57.258Z)
Latitude
-0.00006°
Longitude
10.30917°
Altitude
630.235 km
Speed
7.545 km/s
True Right ascension
21h 20m 31s
True Declination
0° 00' 00"
Sunlit
Object was in full shadow at epoch
Visualization orbit readout
Latitude
Unknown
Longitude
Unknown
Altitude
Unknown
Speed
Unknown
Apparent Right ascension
Unknown
Apparent Declination
Unknown
Sunlit
N/A
Visualization observer readout
Local Sidereal Time
07:14:22
Azimuth
Unknown
Elevation
Unknown
Doppler factor
Unknown
Orbital elements
Apogee altitude
630.373 km
Perigee altitude
629.608 km
Semi-major axis
7,008.127 km
Eccentricity
0.00005
Inclination
51.9001°
RAAN
320.1323°
Arg. of periapsis
82.4191°
True anomaly
277.6771°
Mean anomaly
277.6833°
Eccentric anomaly
277.6802°
Mean motion
3.69948 °/min
Orbital period
97.31 mins
BSTAR
0.00024161
Loading maneuver chart data...
Computing Atmospheric mass density...
Loading historical data...
Loading historical data...
Loading historical data...
Loading historical data...
Loading historical data...
Loading historical data...
Loading historical data...

Documentation

Showing up to 5 results
|